FW6620 Weather Reports


time (UTC)temp
F
wind
direction
speed
knots
gust
knots
rain 1hr
in
rain 24hr
in
rain mn
in
humidity
%
barometer
mb
20260507094558 61 0 0.0 1.7 0.00 0.00 0.00 85 1017.0
20260507094045 61 0 0.0 1.7 0.00 0.00 0.00 84 1016.7
20260507093545 61 97 0.0 1.7 0.00 0.00 0.00 85 1016.8
20260507093050 61 97 0.0 1.7 0.00 0.00 0.00 85 1016.7
20260507092545 61 0 0.0 1.7 0.00 0.00 0.00 84 1016.6
20260507092045 61 0 0.0 1.7 0.00 0.00 0.00 84 1016.7
20260507091549 61 0 0.0 1.7 0.00 0.00 0.00 84 1016.9
20260507091047 61 0 0.0 0.9 0.00 0.00 0.00 84 1017.0
20260507090547 61 0 0.0 0.9 0.00 0.00 0.00 84 1016.8
20260507090051 61 0 0.0 0.9 0.00 0.00 0.00 85 1016.6
20260507085546 61 0 0.0 0.9 0.00 0.00 0.00 84 1016.5
20260507085047 61 0 0.0 0.9 0.00 0.00 0.00 84 1016.5
20260507084548 61 0 0.0 0.9 0.00 0.00 0.00 84 1016.4
20260507084046 62 0 0.0 0.0 0.00 0.00 0.00 84 1016.1
20260507083546 61 0 0.0 1.7 0.00 0.00 0.00 84 1016.3
20260507083048 61 0 0.0 1.7 0.00 0.00 0.00 84 1016.4
20260507082545 62 97 0.0 0.9 0.00 0.00 0.00 83 1016.4
20260507082047 62 0 0.0 0.9 0.00 0.00 0.00 83 1016.5
20260507081554 62 0 0.0 0.9 0.00 0.00 0.00 83 1016.1
20260507081047 62 0 0.0 0.9 0.00 0.00 0.00 84 1015.8
20260507080547 62 0 0.0 0.9 0.00 0.00 0.00 83 1016.1
20260507080101 62 0 0.0 1.7 0.00 0.00 0.00 83 1015.8
20260507075547 62 0 0.0 1.7 0.00 0.00 0.00 83 1015.9
20260507075047 62 0 0.0 1.7 0.00 0.00 0.00 83 1016.2
20260507074558 62 0 0.0 2.6 0.00 0.00 0.00 82 1015.7
20260507074046 62 97 0.0 2.6 0.00 0.00 0.00 82 1015.7
20260507073548 62 97 0.0 1.7 0.00 0.00 0.00 82 1015.7
20260507073101 62 0 0.0 1.7 0.00 0.00 0.00 82 1015.8
20260507072547 62 0 0.0 0.9 0.00 0.00 0.00 82 1016.1
20260507072049 62 0 0.0 0.9 0.00 0.00 0.00 82 1015.9
20260507071553 62 97 0.0 0.9 0.00 0.00 0.00 82 1016.0
20260507071046 62 0 0.0 1.7 0.00 0.00 0.00 81 1015.9
20260507070546 62 0 0.0 1.7 0.00 0.00 0.00 81 1015.8
20260507070058 62 0 0.0 1.7 0.00 0.00 0.00 81 1016.0
20260507065545 62 0 0.0 1.7 0.00 0.00 0.00 81 1016.3
20260507065045 62 0 0.0 2.6 0.00 0.00 0.00 81 1016.1
20260507064555 62 0 0.0 2.6 0.00 0.00 0.00 81 1016.1
20260507064047 62 97 0.0 1.7 0.00 0.00 0.00 81 1015.9
20260507063544 62 116 0.0 2.6 0.00 0.00 0.00 81 1015.9
20260507063054 62 0 0.0 2.6 0.00 0.00 0.00 81 1015.6
20260507062547 62 0 0.0 1.7 0.00 0.00 0.00 81 1015.4
20260507062047 62 0 0.0 1.7 0.00 0.00 0.00 81 1015.4
20260507061552 63 0 0.0 1.7 0.00 0.00 0.00 81 1015.9
20260507061047 63 0 0.0 0.9 0.00 0.00 0.00 81 1016.1
20260507060545 63 0 0.0 2.6 0.00 0.00 0.00 81 1016.0
20260507060053 63 0 0.0 2.6 0.00 0.00 0.00 81 1015.7
20260507055546 63 0 0.0 2.6 0.00 0.00 0.00 81 1015.6
20260507055045 63 0 0.0 2.6 0.00 0.00 0.00 81 1015.6
20260507054551 63 0 0.0 0.9 0.00 0.00 0.00 81 1015.9
20260507054045 63 0 0.0 1.7 0.00 0.00 0.00 81 1016.0
20260507053545 63 0 0.0 1.7 0.00 0.00 0.00 81 1016.0
20260507053058 63 0 0.0 1.7 0.00 0.00 0.00 81 1015.9
20260507052545 63 0 0.0 1.7 0.00 0.00 0.00 82 1015.8
20260507052047 63 0 0.0 1.7 0.00 0.00 0.00 81 1015.7
20260507051548 63 0 0.0 1.7 0.00 0.00 0.00 81 1015.7
20260507051046 63 0 0.0 1.7 0.00 0.00 0.00 81 1015.8
20260507050546 63 0 0.0 1.7 0.00 0.00 0.00 82 1015.6
20260507050050 63 0 0.0 2.6 0.00 0.00 0.00 81 1015.4
20260507045547 63 0 0.0 2.6 0.00 0.00 0.00 82 1015.6
20260507045047 63 0 0.0 1.7 0.00 0.00 0.00 82 1015.8
20260507044559 63 0 0.0 1.7 0.00 0.00 0.00 82 1015.7
20260507044045 63 0 0.0 1.7 0.00 0.00 0.00 82 1015.8
20260507043545 63 0 0.0 1.7 0.00 0.00 0.00 82 1015.7
20260507043051 63 91 0.0 0.9 0.00 0.00 0.00 82 1016.0
20260507042546 63 0 0.0 0.9 0.00 0.00 0.00 83 1015.9
20260507042046 63 0 0.0 0.9 0.00 0.00 0.00 82 1015.9
20260507041552 63 91 0.0 0.9 0.00 0.00 0.00 82 1015.5
20260507041047 63 0 0.0 1.7 0.00 0.00 0.00 82 1015.4
20260507040547 63 0 0.0 1.7 0.00 0.00 0.00 82 1015.5
20260507040058 63 0 0.0 1.7 0.00 0.00 0.00 82 1015.6
20260507035546 63 0 0.0 1.7 0.00 0.00 0.00 82 1015.5
20260507035047 63 0 0.0 0.9 0.00 0.00 0.00 82 1015.5
20260507034553 63 0 0.0 0.9 0.00 0.00 0.00 82 1015.7
20260507034048 63 0 0.0 0.9 0.00 0.00 0.00 81 1015.6
20260507033546 63 0 0.0 0.9 0.00 0.00 0.00 82 1015.6
20260507033102 64 0 0.0 1.7 0.00 0.00 0.00 81 1015.7
20260507032548 64 0 0.0 1.7 0.00 0.00 0.00 81 1015.4
20260507032046 64 91 0.0 1.7 0.00 0.00 0.00 81 1015.1
20260507031600 64 91 0.0 1.7 0.00 0.00 0.00 81 1015.2
20260507031047 64 91 0.0 1.7 0.00 0.00 0.00 81 1015.4
20260507030547 64 0 0.0 1.7 0.00 0.00 0.00 82 1015.6
20260507030107 64 0 0.0 1.7 0.00 0.00 0.00 82 1015.5
20260507025546 64 0 0.0 1.7 0.00 0.00 0.00 82 1015.1
20260507025047 64 0 0.0 1.7 0.00 0.00 0.00 81 1015.1
20260507024609 64 91 0.0 1.7 0.00 0.00 0.00 82 1014.8
20260507024133 64 0 0.0 1.7 0.00 0.00 0.00 82 1015.0
20260507023546 64 0 0.0 1.7 0.00 0.00 0.00 82 1015.3
20260507023053 64 0 0.0 1.7 0.00 0.00 0.00 82 1014.9
20260507022545 64 0 0.0 1.7 0.00 0.00 0.00 81 1014.6
20260507022047 65 0 0.0 1.7 0.00 0.00 0.00 81 1014.7
20260507021557 65 0 0.0 1.7 0.00 0.00 0.00 81 1014.4
20260507021049 65 0 0.0 1.7 0.00 0.00 0.00 81 1014.4
20260507020546 65 0 0.0 1.7 0.00 0.00 0.00 81 1014.6
20260507020100 65 0 0.0 1.7 0.00 0.00 0.00 82 1014.5
20260507015545 65 91 0.0 0.9 0.00 0.00 0.00 82 1014.3
20260507015048 65 0 0.0 0.9 0.00 0.00 0.00 81 1014.2
20260507014557 65 0 0.0 0.9 0.00 0.00 0.00 81 1014.1
20260507014046 65 0 0.0 0.9 0.00 0.00 0.00 82 1014.1
20260507013545 65 0 0.0 0.9 0.00 0.00 0.00 81 1013.9
20260507013100 65 0 0.0 0.9 0.00 0.00 0.00 81 1014.0
20260507012547 65 0 0.0 0.9 0.00 0.00 0.00 81 1013.7
20260507012045 65 0 0.0 0.9 0.00 0.00 0.00 81 1013.7
20260507011557 65 0 0.0 0.9 0.00 0.00 0.00 80 1013.8
20260507011046 65 0 0.0 0.9 0.00 0.00 0.00 80 1013.7
20260507010546 65 0 0.0 0.9 0.00 0.00 0.00 80 1013.5
20260507010053 65 0 0.0 0.9 0.00 0.00 0.00 81 1013.6
20260507005546 65 0 0.0 1.7 0.00 0.00 0.00 80 1013.5
20260507005046 65 91 0.0 1.7 0.00 0.00 0.00 80 1013.4
20260507004552 65 0 0.0 1.7 0.00 0.00 0.00 81 1013.5
20260507004047 65 0 0.0 1.7 0.00 0.00 0.00 80 1013.1
20260507003549 65 0 0.0 1.7 0.00 0.00 0.00 80 1012.9
20260507003051 65 0 0.0 1.7 0.00 0.00 0.00 80 1013.4
20260507002547 65 0 0.0 1.7 0.00 0.00 0.00 79 1013.0
20260507002045 65 91 0.0 1.7 0.00 0.00 0.00 80 1013.3
20260507001549 65 0 0.0 1.7 0.00 0.00 0.00 80 1013.2
20260507001047 65 0 0.0 1.7 0.00 0.00 0.00 80 1013.0
20260507000545 65 0 0.0 2.6 0.00 0.00 0.00 80 1013.1
20260507000050 65 0 0.0 1.7 0.00 0.00 0.00 80 1013.1
20260506235546 65 0 0.0 1.7 0.00 0.00 0.00 80 1013.1
20260506235046 65 0 0.0 1.7 0.00 0.00 0.00 79 1012.8
20260506234554 65 91 0.0 1.7 0.00 0.00 0.00 79 1013.1
20260506234046 65 0 0.0 1.7 0.00 0.00 0.00 79 1013.2
20260506233548 65 0 0.0 1.7 0.00 0.00 0.00 79 1012.9
20260506233056 65 91 0.0 1.7 0.00 0.00 0.00 79 1012.8
20260506232547 65 0 0.0 1.7 0.00 0.00 0.00 79 1012.9
20260506232048 65 91 0.0 1.7 0.00 0.00 0.00 78 1012.9
20260506231555 65 91 0.0 1.7 0.00 0.00 0.00 78 1012.9
20260506231048 66 91 0.0 1.7 0.00 0.00 0.00 78 1012.7
20260506230547 66 91 0.0 1.7 0.00 0.00 0.00 78 1012.9
20260506230059 66 0 0.0 1.7 0.00 0.00 0.00 77 1012.8
20260506225548 66 91 0.0 1.7 0.00 0.00 0.00 77 1012.8
20260506225047 66 91 0.0 1.7 0.00 0.00 0.00 78 1012.7
20260506224551 66 0 0.0 1.7 0.00 0.00 0.00 77 1012.6
20260506224047 66 0 0.0 1.7 0.00 0.00 0.00 78 1012.7
20260506223548 67 0 0.0 1.7 0.00 0.00 0.00 77 1012.7
20260506223051 67 91 0.0 1.7 0.00 0.00 0.00 76 1012.5
20260506222552 67 0 0.0 1.7 0.00 0.00 0.00 75 1012.4
20260506222048 67 0 0.0 1.7 0.00 0.00 0.00 76 1012.4
20260506221550 68 0 0.0 3.5 0.00 0.00 0.00 75 1012.5
20260506221050 68 0 0.0 3.5 0.00 0.00 0.00 75 1012.5
20260506220548 68 122 0.0 1.7 0.00 0.00 0.00 76 1012.6
20260506220054 69 0 0.0 2.6 0.00 0.00 0.00 75 1012.7
20260506215547 69 0 0.0 2.6 0.00 0.00 0.00 73 1012.6
20260506215048 69 0 0.0 3.5 0.00 0.00 0.00 72 1012.5
20260506214551 70 0 0.9 3.5 0.00 0.00 0.00 73 1012.4
20260506214049 70 114 0.0 2.6 0.00 0.00 0.00 73 1012.3
20260506213548 70 95 0.0 2.6 0.00 0.00 0.00 73 1012.2
20260506213055 70 95 0.0 2.6 0.00 0.00 0.00 73 1012.2
20260506212548 71 51 0.0 3.5 0.00 0.00 0.00 72 1012.2
20260506212048 71 0 0.9 3.5 0.00 0.00 0.00 72 1012.3
20260506211554 71 0 0.0 3.5 0.00 0.00 0.00 73 1012.2
20260506211048 72 142 0.0 2.6 0.00 0.00 0.00 72 1012.3
20260506210548 73 0 0.0 3.5 0.00 0.00 0.00 72 1012.2
20260506210052 73 140 0.9 2.6 0.00 0.00 0.00 71 1012.3
20260506205548 74 90 0.0 2.6 0.00 0.00 0.00 72 1012.2
20260506205048 74 0 0.0 2.6 0.00 0.00 0.00 74 1012.3
20260506204553 73 86 0.9 2.6 0.00 0.00 0.00 73 1012.4
20260506204047 73 79 0.0 1.7 0.00 0.00 0.00 73 1012.5
20260506203547 73 0 0.0 3.5 0.00 0.00 0.00 74 1012.5
20260506203049 73 20 0.0 2.6 0.00 0.00 0.00 75 1012.4
20260506202634 73 13 0.0 2.6 0.00 0.00 0.00 76 1012.3
20260506202046 73 0 0.0 3.5 0.00 0.00 0.00 74 1012.4
20260506201556 73 83 0.9 2.6 0.00 0.00 0.00 73 1012.2
20260506201046 74 148 0.9 2.6 0.00 0.00 0.00 75 1012.3
20260506200545 74 0 0.0 1.7 0.00 0.00 0.00 75 1012.1
20260506200059 74 0 0.0 3.5 0.00 0.00 0.00 74 1012.1
20260506195546 75 0 0.0 3.5 0.00 0.00 0.00 74 1012.1
20260506195045 76 43 0.0 3.5 0.00 0.00 0.00 73 1011.9
20260506194556 76 103 0.9 2.6 0.00 0.00 0.00 72 1011.8
20260506194045 77 103 0.0 1.7 0.00 0.00 0.00 75 1011.6
20260506193550 78 0 0.0 1.7 0.00 0.00 0.00 74 1011.5
20260506193054 78 0 0.0 1.7 0.00 0.00 0.00 75 1011.6
20260506192544 78 103 0.0 1.7 0.00 0.00 0.00 75 1011.5
20260506192045 78 0 0.0 1.7 0.00 0.00 0.00 75 1011.5
20260506191552 78 0 0.0 1.7 0.00 0.00 0.00 76 1011.6
20260506191045 78 0 0.0 1.7 0.00 0.00 0.00 76 1011.7
20260506190545 78 0 0.0 1.7 0.00 0.00 0.00 77 1011.8
20260506190058 78 0 0.0 1.7 0.00 0.00 0.00 76 1011.9
20260506185545 77 0 0.0 2.6 0.00 0.00 0.00 77 1011.9
20260506185045 77 0 0.0 2.6 0.00 0.00 0.00 77 1011.9
20260506184554 77 103 0.0 2.6 0.00 0.00 0.00 80 1011.8
20260506184045 76 0 0.9 2.6 0.00 0.00 0.00 81 1011.8
20260506183549 76 0 0.0 1.7 0.00 0.00 0.00 78 1011.8
20260506183054 75 0 0.0 1.7 0.00 0.00 0.00 81 1011.8
20260506182545 75 103 0.0 1.7 0.00 0.00 0.00 82 1012.0
20260506182045 74 0 0.0 2.6 0.00 0.00 0.00 80 1012.0
20260506181559 74 0 0.0 2.6 0.00 0.00 0.00 81 1012.0
20260506181045 74 103 0.0 2.6 0.00 0.00 0.00 82 1011.9
20260506180545 73 0 0.0 2.6 0.00 0.00 0.00 83 1011.9
20260506180051 73 0 0.0 2.6 0.00 0.00 0.00 83 1011.9
20260506175545 72 0 0.0 2.6 0.00 0.00 0.00 82 1011.8
20260506175045 72 103 0.9 2.6 0.00 0.00 0.00 85 1011.8
20260506174557 72 0 0.9 2.6 0.00 0.00 0.00 85 1011.9
20260506174045 71 0 0.0 2.6 0.00 0.00 0.00 89 1011.9
20260506173545 70 103 0.0 2.6 0.00 0.00 0.00 87 1012.0
20260506173124 70 103 0.9 2.6 0.00 0.00 0.00 89 1012.2
20260506172546 69 0 0.9 2.6 0.00 0.00 0.00 90 1012.2
20260506172047 69 0 0.0 1.7 0.00 0.00 0.00 92 1012.1
20260506171547 68 103 0.0 2.6 0.00 0.00 0.00 91 1012.2
20260506171045 67 0 0.0 2.6 0.00 0.00 0.00 90 1012.1
20260506170544 67 103 0.0 1.7 0.00 0.00 0.00 92 1012.3
20260506170052 67 0 0.0 1.7 0.00 0.00 0.00 92 1012.2
20260506165544 67 103 0.0 1.7 0.00 0.00 0.00 93 1012.5
20260506165045 66 0 0.0 1.7 0.00 0.00 0.00 93 1012.6
20260506164556 66 0 0.0 1.7 0.00 0.00 0.00 92 1012.7
20260506164045 66 0 0.0 1.7 0.00 0.00 0.00 90 1012.7
20260506163545 66 0 0.0 3.5 0.00 0.00 0.00 88 1012.8
20260506163106 66 0 0.0 2.6 0.00 0.00 0.00 87 1013.1
20260506162545 67 0 0.9 5.2 0.00 0.00 0.00 87 1013.4
20260506162047 67 0 0.0 5.2 0.00 0.00 0.00 86 1013.5
20260506161622 68 0 0.9 3.5 0.00 0.00 0.00 86 1013.5
20260506161044 69 96 0.9 2.6 0.00 0.00 0.00 86 1013.5
20260506160545 69 0 0.9 2.6 0.00 0.00 0.00 86 1013.1
20260506160051 70 0 0.0 4.3 0.00 0.00 0.00 85 1013.0
20260506155544 71 141 0.9 3.5 0.00 0.00 0.00 83 1013.1
20260506155044 72 119 0.9 3.5 0.00 0.00 0.00 82 1013.0
20260506154600 74 183 0.0 3.5 0.00 0.00 0.00 82 1012.9
20260506154045 75 0 0.9 3.5 0.00 0.00 0.00 80 1012.5
20260506153546 77 149 0.9 3.5 0.00 0.00 0.00 86 1012.5
20260506153059 77 0 0.0 0.0 0.00 0.00 0.00 89 1012.0
20260506152545 77 0 0.0 0.0 0.00 0.00 0.00 89 1011.9
20260506152045 77 0 0.0 0.0 0.00 0.00 0.00 89 1011.6
20260506151555 77 0 0.0 0.0 0.00 0.00 0.00 89 1011.4
20260506151045 77 0 0.0 0.0 0.00 0.00 0.00 89 1011.6
20260506150548 77 0 0.0 0.0 0.00 0.00 0.00 89 1011.5
20260506150052 77 0 0.0 0.0 0.00 0.00 0.00 89 1011.5
20260506145545 77 0 0.0 0.0 0.00 0.00 0.00 89 1011.1
20260506145044 77 0 0.0 2.6 0.00 0.00 0.00 89 1011.0
20260506144552 77 0 0.0 2.6 0.00 0.00 0.00 89 1010.7
20260506144044 77 0 0.0 0.0 0.00 0.00 0.00 89 1010.8
20260506143545 77 0 0.0 2.6 0.00 0.00 0.00 89 1010.8
20260506143101 77 0 0.0 2.6 0.00 0.00 0.00 89 1010.6
20260506142545 77 24 0.0 2.6 0.00 0.00 0.00 90 1010.6
20260506142045 77 0 0.0 2.6 0.00 0.00 0.00 91 1010.3
20260506141548 76 0 0.0 0.9 0.00 0.00 0.00 91 1010.3
20260506141048 76 0 0.0 0.9 0.00 0.00 0.00 91 1010.5
20260506140548 76 0 0.0 0.9 0.00 0.00 0.00 91 1010.8
20260506140049 76 0 0.0 0.0 0.00 0.00 0.00 91 1010.7
20260506135546 76 0 0.0 0.0 0.00 0.00 0.00 91 1010.6
20260506135048 76 0 0.0 0.9 0.00 0.00 0.00 92 1010.4
20260506134552 76 0 0.0 1.7 0.00 0.00 0.00 91 1010.1
20260506134048 76 0 0.0 1.7 0.00 0.00 0.00 91 1010.1
20260506133548 76 0 0.0 0.0 0.00 0.00 0.00 91 1010.1
20260506133046 76 0 0.0 1.7 0.00 0.00 0.00 91 1010.0
20260506132547 75 0 0.0 1.7 0.00 0.00 0.00 91 1010.0
20260506132047 75 24 0.0 1.7 0.00 0.00 0.00 92 1010.0
20260506131551 75 0 0.0 0.9 0.00 0.00 0.00 92 1010.0
20260506131047 75 0 0.0 1.7 0.00 0.00 0.00 92 1010.0
20260506130547 75 0 0.0 1.7 0.00 0.00 0.00 92 1009.9
20260506125548 75 0 0.0 0.9 0.00 0.00 0.00 92 1009.7
20260506125047 75 0 0.0 0.9 0.00 0.00 0.00 92 1009.7
20260506124557 75 0 0.0 0.9 0.00 0.00 0.00 92 1009.7
20260506124048 75 0 0.0 0.0 0.00 0.00 0.00 92 1009.7
20260506123548 75 0 0.0 0.0 0.00 0.00 0.00 92 1009.7
20260506123051 75 0 0.0 0.9 0.00 0.00 0.00 92 1009.7
20260506122550 75 0 0.0 0.9 0.00 0.00 0.00 92 1009.8
20260506122047 75 0 0.0 0.9 0.00 0.00 0.00 92 1009.7
20260506121547 75 0 0.0 0.0 0.00 0.00 0.00 92 1009.8
20260506121047 75 0 0.0 0.0 0.00 0.00 0.00 92 1009.8
20260506120550 75 0 0.0 0.0 0.00 0.00 0.00 92 1009.7
20260506120049 75 0 0.0 0.0 0.00 0.00 0.00 92 1009.6
20260506115547 75 0 0.0 0.0 0.00 0.00 0.00 92 1009.5
20260506115046 75 0 0.0 1.7 0.00 0.00 0.00 92 1009.5
20260506114547 75 0 0.0 1.7 0.00 0.00 0.00 92 1009.5
20260506114047 75 0 0.0 0.0 0.00 0.00 0.00 92 1009.6
20260506113547 75 0 0.0 0.0 0.00 0.00 0.00 92 1009.5
20260506113055 75 0 0.0 0.0 0.00 0.00 0.00 92 1009.7
20260506112549 75 0 0.0 0.0 0.00 0.00 0.00 91 1009.6
20260506112047 75 0 0.0 0.0 0.00 0.00 0.00 91 1009.5
20260506111552 75 0 0.0 0.0 0.00 0.00 0.00 91 1009.6
20260506111048 75 0 0.0 0.0 0.00 0.00 0.00 91 1009.7
20260506110548 75 0 0.0 0.9 0.00 0.00 0.00 91 1009.5
20260506110100 75 0 0.0 0.9 0.00 0.00 0.00 91 1009.6
20260506105548 75 0 0.0 0.9 0.00 0.00 0.00 91 1009.5
20260506105048 75 0 0.0 0.9 0.00 0.00 0.00 91 1009.4
20260506104557 75 0 0.0 0.0 0.00 0.00 0.00 91 1009.4
20260506104048 76 0 0.0 0.0 0.00 0.00 0.00 91 1009.5
20260506103548 76 0 0.0 0.0 0.00 0.00 0.00 91 1009.4
20260506103059 76 0 0.0 0.9 0.00 0.00 0.00 90 1009.3
20260506102547 76 0 0.0 1.7 0.00 0.00 0.00 90 1009.3
20260506102047 76 0 0.0 1.7 0.00 0.00 0.00 90 1009.2
20260506101608 75 0 0.0 1.7 0.00 0.00 0.00 90 1009.0
20260506101047 76 0 0.0 3.5 0.00 0.00 0.00 91 1009.0
20260506100547 76 0 0.0 3.5 0.00 0.00 0.00 91 1009.0
20260506100114 76 0 0.0 1.7 0.00 0.00 0.00 91 1008.9
20260506095548 76 0 0.0 0.9 0.00 0.00 0.00 91 1008.8
20260506095049 76 0 0.0 1.7 0.00 0.00 0.00 91 1008.8